This is the latest recevied weather packets stored in our database for station/object KC4GS-13. If no packets are shown the sender has not sent any weather packets the latest 10 day(s).
| Time | Temp. | Humidity | Pressure | Rain* | Wind** | Luminosity | Snow |
|---|---|---|---|---|---|---|---|
| 1788557150 | 36.11° C | 48% | 1015.1 hPa | 0 mm | - | 378 W/m² | - |
| 1788556845 | 36.11° C | 49% | 1015 hPa | 0 mm | - | 383 W/m² | - |
| 1788556545 | 36.11° C | 48% | 1015 hPa | 0 mm | - | 426 W/m² | - |
| 1788556241 | 36.11° C | 47% | 1015.1 hPa | 0 mm | - | 452 W/m² | - |
| 1788555940 | 36.11° C | 47% | 1015.3 hPa | 0 mm | - | 446 W/m² | - |
| 1788555636 | 36.11° C | 48% | 1015.3 hPa | 0 mm | - | 390 W/m² | - |
| 1788555331 | 36.11° C | 49% | 1015.6 hPa | 0 mm | - | 511 W/m² | - |
| 1788555028 | 36.67° C | 48% | 1015.6 hPa | 0 mm | - | 510 W/m² | - |
| 1788554724 | 36.67° C | 48% | 1015.5 hPa | 0 mm | - | 503 W/m² | - |
| 1788554420 | 36.11° C | 48% | 1015.9 hPa | 0 mm | - | 512 W/m² | - |
| 1788554115 | 36.11° C | 49% | 1015.6 hPa | 0 mm | - | 513 W/m² | - |
| 1788553812 | 36.67° C | 49% | 1015.9 hPa | 0 mm | - | 540 W/m² | - |
| 1788553507 | 36.11° C | 48% | 1016 hPa | 0 mm | - | 553 W/m² | - |
| 1788553203 | 36.11° C | 50% | 1016.1 hPa | 0 mm | - | 612 W/m² | - |
| 1788552898 | 36.11° C | 51% | 1016.1 hPa | 0 mm | - | 644 W/m² | - |
| 1788552594 | 35.56° C | 50% | 1016.2 hPa | 0 mm | - | 651 W/m² | - |
| 1788552292 | 35.56° C | 49% | 1016.3 hPa | 0 mm | - | 622 W/m² | - |
| 1788551992 | 36.11° C | 49% | 1016.6 hPa | 0 mm | - | 646 W/m² | - |
| 1788551690 | 35.56° C | 50% | 1016.1 hPa | 0 mm | - | 646 W/m² | - |
| 1788551389 | 35° C | 53% | 1016.6 hPa | 0 mm | - | 667 W/m² | - |
| 1788551084 | 36.11° C | 51% | 1016.8 hPa | 0 mm | - | 497 W/m² | - |
| 1788550779 | 36.11° C | 51% | 1016.8 hPa | 0 mm | - | 703 W/m² | - |
| 1788550475 | 35.56° C | 52% | 1016.6 hPa | 0 mm | - | 692 W/m² | - |
| 1788550171 | 35.56° C | 52% | 1016.9 hPa | 0 mm | - | 695 W/m² | - |
| 1788549866 | 35.56° C | 53% | 1016.8 hPa | 0 mm | - | 697 W/m² | - |
* Rain latest hour (hover to see other rain measurements)
** Current wind speed in m/s (hover to see current wind gust speed)